Location: Macksville High School
(37.9611°N, 99.9654°W)
Time: 13:58:52
(UTC+00:00)

NOSS 3-4 (C) - Pass Details

Date: 27 February 2020
Orbit: 900 x 1313 km, 63.4° (Epoch: 26 March)

Event Time Altitude Azimuth Distance (km) Brightness Sun altitude
Rises 12:32:28 0° 327° (NNW) 3,884 6.3 -9.1°
Reaches altitude 10° 12:35:01 10° 327° (NNW) 2,982 5.7 -8.6°
Maximum altitude 12:42:13 90° 23° (NNE) 1,199 4.0 -7.2°
Drops below altitude 10° 12:50:07 10° 149° (SSE) 3,246 6.8 -5.7°
Sets 12:53:00 0° 150° (SSE) 4,246 7.4 -5.1°
